Notices

What's New in latest Release from April 7th, 2021:

- Updated Glossary, including Speed of Maximum Gust, and Total Hourly Precipitation

- Updated national and regional climate services offices contacts and prices information

- Addition of station inventory lists for 1981-2010, 1971-2000, and 1961-1990 Normals.

If you haven't already, please take our survey and provide feedback about our website: https://eccc.sondage-survey.ca/f/LanguageSelection.aspx?s=442ca660-fcf1-47c0-95a9-59707d6fd709

Hourly Data Report for April 14, 2021

KENORA A
ONTARIO
Current Station Operator: NAVCAN

49°47'18.000" N
94°21'47.000" W
409.70 m
6034076
71850
YQK

Download Data

Hourly Data (April 2021)
Hourly Data Report for April 14, 2021
TIME
LST
Temp Definition
°C
Dew Point Definition
°C
Rel Hum Definition
%
Precip. Amount Definition
mm

Wind Dir Definition
10's deg

Wind Spd Definition
km/h
Visibility Definition
km
Stn Press Definition
kPa
Hmdx Definition


Wind Chill Definition


Weather Definition


00:00 -0.3 -0.8 96   4 23 9.7 97.12   -6 Freezing Drizzle,Snow,Fog
01:00
02:00 -1.1 -1.7 95   2 17 12.9 97.25   -6 Freezing Drizzle,Snow
03:00 -1.4 -2.0 95   1 16 12.9 97.29   -6 Snow
04:00 -1.7 -2.5 95   2 15 12.9 97.29   -7 Snow
05:00 -1.9 -2.9 93   3 12 12.9 97.36   -6 Snow
06:00 -2.3 -3.0 95   1 16 1.6 97.42   -7 Snow,Fog
07:00 -2.7 -3.6 94   1 19 2.4 97.44   -8 Snow,Fog
08:00 -2.4 -3.5 92   1 11 2.4 97.46   -6 Snow,Fog
09:00 -2.1 -4.2 85   2 13 9.7 97.49   -7 Snow
10:00 -2.2 -3.6 91   36 14 12.9 97.52   -7 Snow
11:00 -2.2 -3.8 89   2 18 24.1 97.54   -8 Snow Showers
12:00 -1.6 -3.7 86   4 15 24.1 97.54   -6 Snow Showers
13:00 -1.3 -3.5 85   1 17 24.1 97.55   -6 Snow Showers
14:00 -0.9 -3.0 85   1 17 32.2 97.54   -6 LegendNANA
15:00 -0.8 -2.7 87   35 15 24.1 97.56   -5 Cloudy
16:00 -0.9 -2.6 88   35 18 32.2 97.58   -6 LegendNANA
17:00 -0.6 -2.4 88   2 14 32.2 97.59   -5 LegendNANA
18:00 -0.8 -2.2 91   2 17 32.2 97.60   -6 Cloudy
19:00 -0.8 -1.8 93   2 16 32.2 97.62   -6 LegendNANA
20:00 -0.7 -1.4 95   3 13 32.2 97.63   -5 LegendNANA
21:00 -0.5 -1.4 93   3 17 32.2 97.63   -5 Cloudy
22:00 -0.4 -2.1 88   4 17 32.2 97.61   -5 LegendNANA
23:00 -0.5 -2.5 86   4 14 32.2 97.62   -5 LegendNANA

Notes on Data Quality.

Legend

  • E = Estimated
  • M = Missing
  • NA = Not Available*
  • [empty] = Indicates an unobserved value
Date modified: